Location: Newark
(3.0500°N, 36.0167°E)
Time: 03:37:41
(UTC+00:00)

A-11 Canister half - Pass Details

Date: 31 August 2019
Orbit: 1527 x 1682 km, 47.3° (Epoch: 19 September)

Event Time Altitude Azimuth Distance (km) Brightness Sun altitude
Rises 18:07:23 0° 276° (W) 4,882 12.6 -36.7°
Reaches altitude 10° 18:13:39 10° 247° (WSW) 3,861 11.6 -38.2°
Maximum altitude 18:16:49 12° 227° (SW) 3,693 11.3 -38.9°
Drops below altitude 10° 18:19:59 10° 208° (SSW) 3,821 11.2 -39.7°
Enters shadow 18:24:08 - 187° (S) 4,375 11.3 -40.7°
Sets 18:26:11 0° 178° (S) 4,766 - -41.2°
